Columbia, SC

8:20 AM EDT on July 24, 2016 (GMT -0400)
Columbia Owens Downtown

Weather History for KCUB - August, 2013

Change the Weather History Date:

Tuesday, August 6, 2013

  Actual Average Record
Temperature  
Mean Temperature 76 °F 82 °F  
Max Temperature 80 °F 92 °F 103 °F (2008)
Min Temperature 72 °F 72 °F 66 °F (2004)
Degree Days  
Heating Degree Days 0 0  
Month to date heating degree days 0 0  
Since 1 June heating degree days 0 0  
Since 1 July heating degree days 0 0  
Cooling Degree Days 11 17  
Month to date cooling degree days 100 103  
Year to date cooling degree days 1367 1419  
Since 1 June cooling degree days 1057 1083  
Growing Degree Days 26 (Base 50)    
Moisture  
Dew Point 71 °F    
Average Humidity 89    
Maximum Humidity 94    
Minimum Humidity 69    
Precipitation  
Precipitation 1.55 in 0.18 in 2.54 in (2015)
Month to date precipitation 1.55 1.11  
Year to date precipitation 36.45 28.02  
Sea Level Pressure  
Sea Level Pressure 30.04 in    
Wind  
Wind Speed 2 mph (NE)    
Max Wind Speed 10 mph    
Max Gust Speed 16 mph    
Visibility 6 miles    
Events Fog , Rain    
T = Trace of Precipitation, MM = Missing Value Source: NWS Daily Summary

Daily Weather History Graph

Daily Weather History Graph

Search for Another Location

Airport or City:

Trip Planner

Search our weather history database for the weather conditions in past years. The results will help you decide how hot, cold, wet, or windy it might be!

Date:

Astronomy

Aug. 06, 2013 Rise Set
Actual Time 6:39 AM EDT 8:19 PM EDT
Civil Twilight 6:12 AM EDT 8:46 PM EDT
Nautical Twilight 5:39 AM EDT 9:19 PM EDT
Astronomical Twilight 5:05 AM EDT 9:53 PM EDT
Moon 6:26 AM EDT (8/6) 7:57 PM EDT (8/6)
Length of Visible Light 14h 34m
Length of Day
13h 40m
Waning Crescent, 0% of the Moon is Illuminated
Aug 6
Waning Crescent
Aug 6
New
Aug 14
First Quarter
Aug 20
Full
Aug 28
Last Quarter

Hourly Weather History & Observations

Time (EDT) Temp. Heat Index Dew Point Humidity Pressure Visibility Wind Dir Wind Speed Gust Speed Precip Events Conditions
12:53 AM 75.9 °F - 64.0 °F 67% 30.03 in 10.0 mi Calm Calm - N/A   Scattered Clouds
1:53 AM 75.0 °F - 64.0 °F 69% 30.02 in 10.0 mi Calm Calm - N/A   Overcast
2:53 AM 73.9 °F - 64.0 °F 71% 30.01 in 10.0 mi Calm Calm - N/A   Clear
3:53 AM 73.0 °F - 64.9 °F 76% 29.99 in 10.0 mi Calm Calm - N/A   Scattered Clouds
4:53 AM 73.9 °F - 66.0 °F 76% 29.99 in 10.0 mi Calm Calm - N/A   Overcast
5:53 AM 72.0 °F - 66.0 °F 81% 29.99 in 10.0 mi Calm Calm - N/A   Partly Cloudy
6:53 AM 72.0 °F - 66.0 °F 81% 30.00 in 10.0 mi Calm Calm - N/A   Scattered Clouds
7:53 AM 73.0 °F - 66.9 °F 81% 30.02 in 10.0 mi Calm Calm - N/A   Partly Cloudy
8:53 AM 77.0 °F - 68.0 °F 74% 30.04 in 10.0 mi Variable 4.6 mph - N/A   Scattered Clouds
9:53 AM 79.0 °F - 70.0 °F 74% 30.04 in 10.0 mi Variable 5.8 mph - N/A   Overcast
10:53 AM 80.1 °F 83.2 °F 70.0 °F 71% 30.05 in 10.0 mi South 6.9 mph - N/A   Overcast
11:26 AM 77.0 °F - 73.4 °F 89% 30.06 in 2.0 mi NE 5.8 mph - 0.05 in Rain Rain
11:33 AM 75.2 °F - 73.4 °F 94% 30.06 in 1.2 mi NE 3.5 mph - 0.10 in Rain Heavy Rain
11:38 AM 75.2 °F - 73.4 °F 94% 30.06 in 3.0 mi Calm Calm - 0.10 in Rain Light Rain
11:53 AM 75.9 °F - 73.9 °F 94% 30.06 in 7.0 mi East 3.5 mph - 0.10 in   Overcast
12:05 PM 75.2 °F - 73.4 °F 94% 30.06 in 8.0 mi ENE 3.5 mph - N/A   Overcast
12:53 PM 75.9 °F - 73.9 °F 94% 30.04 in 10.0 mi Calm Calm - N/A   Overcast
1:48 PM 75.2 °F - 73.4 °F 94% 30.05 in 2.5 mi NNW 4.6 mph - 0.07 in Rain Rain
1:49 PM 75.2 °F - 73.4 °F 94% 30.05 in 1.5 mi North 5.8 mph - 0.11 in Rain Heavy Rain
1:51 PM 75.2 °F - 73.4 °F 94% 30.05 in 0.8 mi North 6.9 mph - 0.17 in Rain Heavy Rain
1:53 PM 73.9 °F - 73.0 °F 97% 30.04 in 0.8 mi North 8.1 mph - 0.21 in Rain Heavy Rain
2:11 PM 73.4 °F - 71.6 °F 94% 30.05 in 0.2 mi ENE 9.2 mph - 0.89 in Fog , Rain Heavy Rain
2:19 PM 73.4 °F - 71.6 °F 94% 30.05 in 1.0 mi East 3.5 mph - 0.90 in Rain Light Rain
2:21 PM 73.4 °F - 71.6 °F 94% 30.05 in 3.0 mi Variable 4.6 mph - 0.90 in Rain Light Rain
2:35 PM 73.4 °F - 71.6 °F 94% 30.05 in 3.0 mi ENE 5.8 mph - 0.94 in Rain Heavy Rain
2:43 PM 73.4 °F - 71.6 °F 94% 30.04 in 2.0 mi ENE 4.6 mph - 0.96 in Rain Rain
2:51 PM 73.4 °F - 71.6 °F 94% 30.05 in 7.0 mi Variable 3.5 mph - 0.96 in Rain Light Rain
2:53 PM 73.0 °F - 72.0 °F 96% 30.04 in 8.0 mi Calm Calm - 0.97 in Rain Light Rain
3:08 PM 73.4 °F - 71.6 °F 94% 30.04 in 1.8 mi Variable 3.5 mph - 0.08 in Rain Heavy Rain
3:23 PM 73.4 °F - 71.6 °F 94% 30.04 in 3.0 mi Calm Calm - 0.13 in Rain Light Rain
3:32 PM 73.4 °F - 71.6 °F 94% 30.05 in 2.0 mi Calm Calm - 0.18 in Rain Rain
3:36 PM 73.4 °F - 71.6 °F 94% 30.05 in 1.0 mi Variable 3.5 mph - 0.22 in Rain Heavy Rain
3:48 PM 73.4 °F - 71.6 °F 94% 30.05 in 1.8 mi Calm Calm - 0.27 in Rain Rain
3:50 PM 73.4 °F - 71.6 °F 94% 30.05 in 2.5 mi Calm Calm - 0.27 in Rain Light Rain
3:53 PM 73.0 °F - 72.0 °F 96% 30.05 in 3.0 mi Calm Calm - 0.27 in Rain Light Rain
4:04 PM 73.4 °F - 71.6 °F 94% 30.04 in 4.0 mi Variable 3.5 mph - 0.00 in Rain Light Rain
4:22 PM 73.4 °F - 71.6 °F 94% 30.04 in 5.0 mi Variable 3.5 mph - 0.00 in   Overcast
4:53 PM 73.9 °F - 72.0 °F 93% 30.04 in 9.0 mi Variable 3.5 mph - 0.00 in   Overcast
5:53 PM 73.9 °F - 72.0 °F 93% 30.04 in 8.0 mi Calm Calm - N/A   Overcast
6:37 PM 73.4 °F - 71.6 °F 94% 30.04 in 7.0 mi Calm Calm - N/A   Overcast
6:48 PM 75.2 °F - 71.6 °F 89% 30.05 in 7.0 mi Calm Calm - N/A   Overcast
6:53 PM 75.0 °F - 72.0 °F 90% 30.04 in 7.0 mi Calm Calm - N/A   Overcast
7:53 PM 75.0 °F - 72.0 °F 90% 30.04 in 8.0 mi Calm Calm - N/A   Overcast
8:53 PM 75.0 °F - 72.0 °F 90% 30.04 in 7.0 mi Calm Calm - N/A   Partly Cloudy
9:53 PM 73.9 °F - 72.0 °F 93% 30.05 in 6.0 mi Calm Calm - N/A   Clear
10:53 PM 73.0 °F - 71.1 °F 93% 30.06 in 5.0 mi Calm Calm - N/A   Clear
11:33 PM 73.4 °F - 71.6 °F 94% 30.07 in 5.0 mi Calm Calm - N/A   Scattered Clouds
11:42 PM 73.4 °F - 71.6 °F 94% 30.07 in 4.0 mi Calm Calm - N/A   Mostly Cloudy
11:53 PM 73.0 °F - 71.1 °F 93% 30.07 in 4.0 mi Calm Calm - N/A   Overcast